Content
SEND FEEDBACK

Daily
Averages
Monthly
Summary
Netherlands

HAARLEM, NETHERLANDS


Home > Europe > Netherlands
Elevation: 62 feet     Latitude: 52 28N     Longitude: 004 35E

WEATHER
 
SELECT A DAY
Number of Records: 303,193;   Date Range: 7/1/96 - 8/31/14
 
SHARE

PRINT THIS DATA

[ ← Previous Day ]
WEATHER ALMANAC - JANUARY 6, 2013
[ Next Day → ]
[ °C ]   °F
Weather ElementAverageHighLow
Temperature46.6 °F51 °F (1:00 pm)41 °F (6:55 pm)
Dewpoint45.2 °F48 °F (1:00 pm)41 °F (6:55 pm)
Humidity94.5 %100 % (3:55 am)84 % (1:00 pm)
Barometer30.42 in30.46 in (1:00 am)30.39 in (2:25 pm)
Wind Speed8.7 mph13.8 mph (2:55 am)
Weather ElementAverage
Visibility5.1 mi
Wind DirectionWNW (280.6 °)

Weather ElementTotal
Precipitation---
Heating Degree Days19 (Base 65)
Averaged from 54 records on January 6, 2013
WEATHER CONDITIONS BREAKOUT
WIND DIRECTION BREAKOUT
WEATHER BY HOUR - JANUARY 6, 2013
[ °C ]   °F
Local TimeTemperatureDewpointHumidityBarometerVisibilityWind DirectionWind SpeedGust SpeedPrecipitationEventsConditions
12:55 AM48.2 °F46.4 °F93 %30.45 in6.2 miWest (260°)11.5 mphMostly Cloudy
1:00 AM48.0 °F46.0 °F90 %30.46 in7.0 miWest (260°)11.2 mphPartly Cloudy
1:25 AM48.2 °F46.4 °F93 %30.45 in6.2 miWSW (250°)11.5 mphMostly Cloudy
1:55 AM48.2 °F46.4 °F93 %30.45 in6.2 miWest (260°)10.4 mphMostly Cloudy
2:25 AM48.2 °F46.4 °F93 %30.45 in6.2 miWest (260°)11.5 mphMostly Cloudy
2:55 AM48.2 °F46.4 °F93 %30.45 in6.2 miWest (270°)13.8 mphMostly Cloudy
3:25 AM48.2 °F46.4 °F93 %30.42 in6.2 miWest (280°)10.4 mphMostly Cloudy
3:55 AM46.4 °F46.4 °F100 %30.42 in5.6 miWest (280°)11.5 mphMostly Cloudy
4:00 AM47.0 °F45.0 °F92 %30.45 in4.0 miWest (280°)8.9 mphMist
4:25 AM46.4 °F44.6 °F93 %30.42 in5.6 miWest (270°)9.2 mphMostly Cloudy
4:55 AM44.6 °F44.6 °F100 %30.42 in5.6 miWest (280°)6.9 mphScattered Clouds
5:25 AM44.6 °F44.6 °F100 %30.42 in5.0 miWest (280°)9.2 mphScattered Clouds
5:55 AM44.6 °F44.6 °F100 %30.42 in5.0 miWest (280°)9.2 mphPartly Cloudy
6:25 AM46.4 °F44.6 °F93 %30.42 in5.6 miWest (280°)10.4 mphMostly Cloudy
6:55 AM46.4 °F44.6 °F93 %30.42 in6.2 miWNW (290°)10.4 mphMostly Cloudy
7:00 AM47.0 °F45.0 °F92 %30.43 in6.0 miWNW (290°)8.9 mphMist
7:25 AM46.4 °F44.6 °F93 %30.42 in6.2 miWest (280°)10.4 mphMostly Cloudy
7:55 AM46.4 °F44.6 °F93 %30.42 in6.2 miWest (280°)10.4 mphMostly Cloudy
8:25 AM46.4 °F44.6 °F93 %30.42 in6.2 miWest (280°)12.7 mphMostly Cloudy
8:55 AM48.2 °F46.4 °F93 %30.42 in6.2 miWNW (290°)11.5 mphMostly Cloudy
9:25 AM48.2 °F46.4 °F93 %30.42 in6.2 miWNW (300°)9.2 mphMostly Cloudy
9:55 AM48.2 °F46.4 °F93 %30.42 in6.2 miWNW (300°)9.2 mphMostly Cloudy
10:00 AM47.0 °F46.0 °F92 %30.44 in6.0 miWNW (300°)8.9 mphMist
10:25 AM46.4 °F46.4 °F100 %30.42 in6.2 miWNW (300°)9.2 mphMostly Cloudy
10:55 AM46.4 °F44.6 °F93 %30.42 in6.2 miWNW (300°)6.9 mphScattered Clouds
11:25 AM48.2 °F46.4 °F93 %30.42 in6.2 miWNW (300°)5.8 mphScattered Clouds
11:55 AM48.2 °F46.4 °F93 %30.42 in6.2 miNW (310°)8.1 mphMostly Cloudy
12:25 PM50.0 °F46.4 °F87 %30.42 in6.2 miWNW (300°)6.9 mphScattered Clouds
12:55 PM50.0 °F46.4 °F87 %30.42 in6.2 miWNW (300°)8.1 mphPartly Cloudy
1:00 PM51.0 °F48.0 °F84 %30.43 in7.0 miWNW (300°)8.9 mphPartly Cloudy
1:25 PM50.0 °F46.4 °F87 %30.42 in6.2 miNW (310°)10.4 mphPartly Cloudy
1:55 PM50.0 °F46.4 °F87 %30.42 in6.2 miNW (310°)8.1 mphPartly Cloudy
2:25 PM50.0 °F46.4 °F87 %30.39 in6.2 miWNW (300°)8.1 mphPartly Cloudy
2:55 PM50.0 °F46.4 °F87 %30.39 in6.2 miWNW (300°)6.9 mphPartly Cloudy
3:25 PM48.2 °F46.4 °F93 %30.42 in6.2 miWNW (290°)5.8 mphPartly Cloudy
3:55 PM48.2 °F44.6 °F87 %30.42 in6.2 miWNW (300°)6.9 mphPartly Cloudy
4:00 PM47.0 °F45.0 °F91 %30.43 in7.0 miWNW (290°)6.7 mphScattered Clouds
4:25 PM46.4 °F44.6 °F93 %30.42 in6.2 miWNW (290°)8.1 mphPartly Cloudy
4:55 PM42.8 °F42.8 °F100 %30.42 in6.2 miWest (280°)5.8 mphPartly Cloudy
5:25 PM42.8 °F42.8 °F100 %30.39 in6.2 miWest (270°)5.8 mphFogShallow Fog
5:55 PM44.6 °F44.6 °F100 %30.42 in6.2 miWest (270°)8.1 mphFogShallow Fog
6:25 PM42.8 °F42.8 °F100 %30.39 in5.6 miWest (280°)8.1 mphFogFog
6:55 PM41.0 °F41.0 °F100 %30.39 in2.5 miWest (280°)6.9 mphFogPatches of Fog
7:00 PM41.0 °F41.0 °F100 %30.41 in2.0 miWest (280°)6.7 mphMist
7:25 PM42.8 °F42.8 °F100 %30.39 in0.5 miWest (270°)6.9 mphFogFog
7:55 PM44.6 °F44.6 °F100 %30.39 in0.2 miWest (280°)5.8 mphFogFog
8:25 PM44.6 °F44.6 °F100 %30.39 in0.3 miWest (270°)4.6 mphFogFog
8:55 PM44.6 °F44.6 °F100 %30.39 in0.3 miWest (270°)8.1 mphFogFog
9:25 PM44.6 °F44.6 °F100 %30.39 inWest (260°)5.8 mphFogFog
9:55 PM44.6 °F44.6 °F100 %30.42 inWSW (250°)4.6 mphFogFog
10:25 PM44.6 °F44.6 °F100 %30.42 in0.3 miSW (230°)6.9 mphFogFog
10:55 PM46.4 °F44.6 °F93 %30.42 in1.4 miWest (260°)8.1 mphMostly Cloudy
11:25 PM46.4 °F46.4 °F100 %30.39 in1.2 miWSW (250°)11.5 mphOvercast
11:55 PM44.6 °F44.6 °F100 %30.42 in1.4 miWSW (250°)12.7 mphOvercast
Hourly data recorded from EHAM, located miles away from Haarlem, Netherlands







STORIES FROM OUR PARTNERS